Location: Calvin Observatory
(42.9309°N, 85.5886°W)
Time: 22:13:45
(UTC-04:00)

ISS - Visible Passes

Search period start: 20 October 2014 00:00
Search period end: 30 October 2014 00:00
Orbit: 413 x 416 km, 51.6° (Epoch: 20 October)

Date Brightness Start Highest point End Pass type
(mag) Time Alt. Az. Time Alt. Az. Time Alt. Az.
20 Oct -1.5 19:41:28 10° NW 19:44:06 21° NNE 19:46:07 13° NE visible
20 Oct -0.6 21:17:57 10° NW 21:18:59 19° NW 21:18:59 19° NW visible
21 Oct -2.6 20:28:59 10° NW 20:31:58 41° NNE 20:31:58 41° NNE visible
22 Oct -2.2 19:40:01 10° NW 19:43:02 30° NNE 19:45:00 17° ENE visible
22 Oct -0.6 21:16:36 10° WNW 21:17:52 21° WNW 21:17:52 21° WNW visible
23 Oct -3.4 20:27:27 10° WNW 20:30:48 86° SW 20:30:57 80° SE visible
24 Oct -3.1 19:38:21 10° NW 19:41:40 58° NNE 19:44:08 16° ESE visible
24 Oct -0.4 21:15:38 10° W 21:17:01 17° WSW 21:17:01 17° WSW visible
25 Oct -1.7 20:26:03 10° WNW 20:29:04 32° SW 20:30:19 24° S visible
26 Oct -2.7 19:36:41 10° WNW 19:39:58 57° SW 19:43:14 10° SE visible
27 Oct -0.2 20:25:27 10° WSW 20:27:00 13° SW 20:28:33 10° SSW visible
28 Oct -0.7 19:35:17 10° W 19:37:56 22° SW 19:40:33 10° S visible
